Location: Charlotte
(35.2269°N, 80.8433°W)
Time: 07:50:33
(UTC-04:00)

ISS - Visible Passes

Search period start: 24 May 2016 00:00
Search period end: 03 June 2016 00:00
Orbit: 402 x 404 km, 51.6° (Epoch: 24 May)

Date Brightness Start Highest point End Pass type
(mag) Time Alt. Az. Time Alt. Az. Time Alt. Az.
24 May 0.1 05:01:33 10° N 05:02:48 12° NNE 05:04:01 10° NE visible
26 May -0.5 04:51:28 10° NNW 04:54:02 21° NNE 04:56:35 10° E visible
26 May -2.5 21:28:31 10° SSW 21:31:23 29° SE 21:34:16 10° ENE visible
26 May -0.9 23:05:08 10° W 23:07:50 23° NNW 23:10:32 10° NNE visible
27 May 0.1 03:59:22 10° N 04:01:03 13° NNE 04:02:41 10° ENE visible
27 May -3.4 05:34:36 10° NW 05:37:51 81° SW 05:41:05 10° SE visible
27 May -2.1 22:11:49 10° WSW 22:14:57 43° NW 22:18:05 10° NE visible
28 May -2.2 04:41:55 10° NW 04:45:05 45° NE 04:48:13 10° ESE visible
28 May -3.4 21:18:55 10° SW 21:22:09 86° SE 21:25:26 10° NE visible
28 May 0.1 22:57:25 10° NW 22:58:59 13° NNW 23:00:33 10° N visible
29 May -0.9 03:49:27 10° NNW 03:52:12 24° NNE 03:54:56 10° E visible
29 May -2.4 05:25:47 10° WNW 05:28:37 27° SW 05:31:25 10° SSE visible
29 May -0.4 22:03:28 10° W 22:05:59 20° NNW 22:08:30 10° NNE visible
30 May -0.1 02:57:14 10° N 02:59:13 15° NNE 03:01:12 10° ENE visible
30 May -3.5 04:32:43 10° NW 04:35:56 63° SW 04:39:08 10° SE visible
30 May -1.5 21:10:01 10° WSW 21:13:03 35° NW 21:16:06 10° NNE visible
31 May 0.2 21:56:01 10° NW 21:57:08 11° NNW 21:58:16 10° N visible
01 Jun -0.3 21:01:47 10° WNW 21:04:05 17° NNW 21:06:22 10° NNE visible
